IGO255 VOMM-VOBL

Flight info

Callsign IGO255
Flight time N/A
Altitude 20000
Route XIVIL2B/25 MMV W117 BIA
Aircraft A20N/M-SDE2E3FGHIRWXY/LB1

Departure

Time 2026-04-30 08:28
Airport Chennai International Airport (VOMM)

Arrival

Time N/A
Airport Kempegowda International Airport Bengaluru (VOBL)
Time Latitude Longitude Altitude Speed Heading
2026-04-30 08:10 12.98475 80.16638 55 ft 0 kts 158°
2026-04-30 08:19 12.98484 80.16634 55 ft 2 kts 158°
2026-04-30 08:19 12.98498 80.16629 50 ft 2 kts 158°
2026-04-30 08:20 12.98512 80.16623 52 ft 2 kts 158°
2026-04-30 08:20 12.98522 80.16618 47 ft 1 kts 148°
2026-04-30 08:20 12.98529 80.16613 52 ft 1 kts 107°
2026-04-30 08:20 12.98530 80.16604 47 ft 1 kts 70°
2026-04-30 08:21 12.98529 80.16601 47 ft 0 kts 70°
2026-04-30 08:23 12.98529 80.16603 55 ft 2 kts 70°
2026-04-30 08:24 12.98545 80.16648 55 ft 13 kts 70°
2026-04-30 08:24 12.98582 80.16741 52 ft 12 kts 63°
2026-04-30 08:24 12.98656 80.16755 53 ft 14 kts 336°
2026-04-30 08:24 12.98735 80.16731 51 ft 10 kts
2026-04-30 08:25 12.98773 80.16744 50 ft 0 kts
2026-04-30 08:25 12.98781 80.16764 52 ft 9 kts 80°
2026-04-30 08:25 12.98810 80.16861 52 ft 18 kts 68°
2026-04-30 08:25 12.98853 80.16998 53 ft 22 kts 69°
2026-04-30 08:26 12.98914 80.17153 51 ft 25 kts 67°
2026-04-30 08:26 12.98991 80.17321 51 ft 27 kts 71°
2026-04-30 08:26 12.99056 80.17506 53 ft 29 kts 69°
2026-04-30 08:26 12.99118 80.17656 51 ft 7 kts 64°
2026-04-30 08:27 12.99175 80.17690 52 ft 14 kts 349°
2026-04-30 08:27 12.99268 80.17661 55 ft 10 kts 334°
2026-04-30 08:27 12.99278 80.17597 51 ft 11 kts 249°
2026-04-30 08:27 12.99276 80.17591 52 ft 0 kts 249°
2026-04-30 08:28 12.99252 80.17524 56 ft 45 kts 250°
2026-04-30 08:28 12.99029 80.16932 50 ft 128 kts 249°
2026-04-30 08:28 12.98671 80.15970 227 ft 156 kts 248°
2026-04-30 08:28 12.98305 80.14949 836 ft 156 kts 251°
2026-04-30 08:29 12.98229 80.13791 1317 ft 170 kts 276°
2026-04-30 08:29 12.98577 80.12607 1795 ft 175 kts 288°
2026-04-30 08:29 12.99049 80.11475 1964 ft 187 kts 291°
2026-04-30 08:29 12.99578 80.10171 2402 ft 208 kts 289°
2026-04-30 08:30 13.00070 80.08708 2920 ft 229 kts 285°
2026-04-30 08:30 13.00548 80.07064 3382 ft 251 kts 284°
2026-04-30 08:30 13.01029 80.05273 3979 ft 268 kts 284°
2026-04-30 08:30 13.01513 80.03423 4873 ft 272 kts 284°
2026-04-30 08:31 13.02007 80.01526 5416 ft 277 kts 284°
2026-04-30 08:31 13.02505 79.99616 5667 ft 279 kts 285°
2026-04-30 08:31 13.03008 79.97691 5773 ft 279 kts 285°
2026-04-30 08:31 13.03512 79.95765 5785 ft 279 kts 285°
2026-04-30 08:32 13.04017 79.93844 5793 ft 278 kts 285°
2026-04-30 08:32 13.04520 79.91926 5782 ft 278 kts 285°
2026-04-30 08:32 13.05023 79.90007 5789 ft 278 kts 285°
2026-04-30 08:32 13.05518 79.88118 5787 ft 278 kts 285°
2026-04-30 08:33 13.06019 79.86198 5779 ft 278 kts 285°
2026-04-30 08:33 13.06527 79.84255 5785 ft 279 kts 285°
2026-04-30 08:33 13.07024 79.82358 5780 ft 278 kts 285°
2026-04-30 08:33 13.07526 79.80439 5785 ft 278 kts 285°
2026-04-30 08:34 13.08012 79.78539 6057 ft 269 kts 285°
2026-04-30 08:34 13.08459 79.76726 6776 ft 256 kts 285°
2026-04-30 08:34 13.08884 79.74992 7872 ft 246 kts 285°
2026-04-30 08:34 13.09304 79.73287 8739 ft 249 kts 285°
2026-04-30 08:35 13.09735 79.71548 9545 ft 253 kts 285°
2026-04-30 08:35 13.10171 79.69789 10308 ft 256 kts 285°
2026-04-30 08:35 13.10612 79.68006 11088 ft 258 kts 285°
2026-04-30 08:35 13.11054 79.66218 11900 ft 260 kts 285°
2026-04-30 08:36 13.11495 79.64435 12684 ft 262 kts 285°
2026-04-30 08:36 13.11947 79.62615 13490 ft 264 kts 285°
2026-04-30 08:36 13.12403 79.60779 14212 ft 266 kts 285°
2026-04-30 08:36 13.12861 79.58930 14910 ft 268 kts 285°
2026-04-30 08:37 13.13322 79.57069 15606 ft 270 kts 285°
2026-04-30 08:37 13.13781 79.55220 16295 ft 272 kts 285°
2026-04-30 08:37 13.14250 79.53328 16972 ft 275 kts 284°
2026-04-30 08:37 13.14728 79.51395 17649 ft 277 kts 284°
2026-04-30 08:38 13.15197 79.49500 18285 ft 279 kts 284°
2026-04-30 08:38 13.15675 79.47567 18880 ft 280 kts 284°
2026-04-30 08:38 13.16155 79.45627 19440 ft 282 kts 284°
2026-04-30 08:38 13.16638 79.43670 20018 ft 284 kts 284°
2026-04-30 08:39 13.17123 79.41703 20605 ft 284 kts 283°
2026-04-30 08:39 13.17611 79.39727 21170 ft 286 kts 283°
2026-04-30 08:39 13.18101 79.37737 21726 ft 288 kts 283°
2026-04-30 08:39 13.18596 79.35733 22282 ft 290 kts 283°
2026-04-30 08:40 13.19092 79.33719 22811 ft 293 kts 283°
2026-04-30 08:40 13.19837 79.31804 23313 ft 297 kts 303°
2026-04-30 08:40 13.21349 79.30298 23718 ft 306 kts 327°
2026-04-30 08:40 13.23369 79.29552 24079 ft 316 kts 350°
2026-04-30 08:41 13.25589 79.29667 24444 ft 327 kts 12°
2026-04-30 08:41 13.27637 79.30650 24826 ft 335 kts 36°
2026-04-30 08:41 13.29225 79.32414 25195 ft 342 kts 58°
2026-04-30 08:41 13.30075 79.34705 25525 ft 348 kts 82°
2026-04-30 08:42 13.30060 79.37188 25719 ft 351 kts 102°
2026-04-30 08:42 13.29474 79.39624 25794 ft 350 kts 108°
2026-04-30 08:42 13.28750 79.42008 25793 ft 349 kts 109°
2026-04-30 08:42 13.28037 79.44391 25791 ft 349 kts 108°
2026-04-30 08:43 13.27367 79.46792 25791 ft 349 kts 107°
2026-04-30 08:43 13.26735 79.49192 25790 ft 349 kts 106°
2026-04-30 08:43 13.26127 79.51581 25787 ft 349 kts 106°
2026-04-30 08:43 13.25523 79.53991 25787 ft 349 kts 105°
2026-04-30 08:44 13.24921 79.56408 25788 ft 349 kts 105°
2026-04-30 08:44 13.24318 79.58823 25785 ft 349 kts 105°
2026-04-30 08:44 13.23717 79.61234 25786 ft 350 kts 105°
2026-04-30 08:44 13.23111 79.63660 25783 ft 349 kts 105°
2026-04-30 08:45 13.22509 79.66069 25782 ft 350 kts 105°
2026-04-30 08:45 13.21904 79.68491 25779 ft 350 kts 105°
2026-04-30 08:45 13.21300 79.70908 25779 ft 350 kts 105°
2026-04-30 08:45 13.20697 79.73320 25779 ft 350 kts 105°
2026-04-30 08:46 13.20092 79.75743 25780 ft 350 kts 105°
2026-04-30 08:46 13.19489 79.78157 25778 ft 350 kts 105°
2026-04-30 08:46 13.18883 79.80584 25777 ft 350 kts 106°
2026-04-30 08:46 13.18300 79.82923 25777 ft 350 kts 106°
2026-04-30 08:47 13.17390 79.85210 25780 ft 345 kts 127°
2026-04-30 08:47 13.15767 79.86991 25681 ft 341 kts 149°
2026-04-30 08:47 13.13676 79.88017 25415 ft 341 kts 171°
2026-04-30 08:47 13.11266 79.88170 25159 ft 358 kts 192°
2026-04-30 08:48 13.08830 79.87401 24896 ft 376 kts 210°
2026-04-30 08:48 13.06659 79.85810 24638 ft 395 kts 226°
2026-04-30 08:48 13.04924 79.83540 24367 ft 415 kts 241°
2026-04-30 08:48 13.03744 79.80764 24111 ft 435 kts 254°
2026-04-30 08:49 13.03189 79.77683 23853 ft 453 kts 266°
2026-04-30 08:49 13.03301 79.74396 23597 ft 471 kts 278°
2026-04-30 08:49 13.04111 79.71089 23404 ft 485 kts 290°
2026-04-30 08:49 13.05599 79.67988 23412 ft 484 kts 301°
2026-04-30 08:50 13.07643 79.65254 23205 ft 486 kts 311°
2026-04-30 08:50 13.09165 79.63556 23017 ft 487 kts 309°
2026-04-30 08:50 13.11186 79.60789 22813 ft 485 kts 300°
2026-04-30 08:50 13.12729 79.57719 22662 ft 482 kts 292°
2026-04-30 08:51 13.14216 79.53385 22441 ft 481 kts 286°
2026-04-30 08:51 13.14816 79.51199 22358 ft 480 kts 284°
2026-04-30 08:51 13.15647 79.47898 22167 ft 478 kts 283°
2026-04-30 08:51 13.16447 79.44598 21880 ft 474 kts 283°
2026-04-30 08:52 13.17243 79.41307 21598 ft 476 kts 283°
2026-04-30 08:52 13.18311 79.36927 21439 ft 474 kts 284°
2026-04-30 08:52 13.18842 79.34770 21308 ft 467 kts 284°
2026-04-30 08:52 13.19638 79.31546 21012 ft 465 kts 284°
2026-04-30 08:53 13.20436 79.28314 20731 ft 468 kts 284°
2026-04-30 08:53 13.21235 79.25079 20450 ft 466 kts 284°
2026-04-30 08:53 13.22029 79.21864 20170 ft 463 kts 284°
2026-04-30 08:53 13.22825 79.18639 19917 ft 466 kts 284°
2026-04-30 08:54 13.23609 79.15462 19824 ft 467 kts 284°
2026-04-30 08:54 13.24420 79.12175 19786 ft 467 kts 284°
2026-04-30 08:54 13.25217 79.08940 19593 ft 468 kts 284°
2026-04-30 08:54 13.26005 79.05741 19409 ft 468 kts 284°
2026-04-30 08:55 13.26801 79.02509 19322 ft 463 kts 284°
2026-04-30 08:55 13.27580 78.99342 19162 ft 451 kts 284°
2026-04-30 08:55 13.28341 78.96245 18879 ft 448 kts 284°
2026-04-30 08:55 13.28961 78.93074 18660 ft 454 kts 278°
2026-04-30 08:56 13.29209 78.89845 18442 ft 455 kts 271°
2026-04-30 08:56 13.29095 78.86595 18229 ft 457 kts 266°
2026-04-30 08:56 13.28860 78.83336 17992 ft 458 kts 266°
2026-04-30 08:56 13.28636 78.80066 17885 ft 459 kts 266°
2026-04-30 08:57 13.28416 78.76795 17877 ft 458 kts 266°
2026-04-30 08:57 13.28197 78.73557 17804 ft 450 kts 266°
2026-04-30 08:57 13.27983 78.70392 17567 ft 438 kts 266°
2026-04-30 08:57 13.27772 78.67291 17273 ft 437 kts 266°
2026-04-30 08:58 13.27559 78.64156 17029 ft 442 kts 266°
2026-04-30 08:58 13.27344 78.61007 16787 ft 442 kts 266°
2026-04-30 08:58 13.27130 78.57904 16546 ft 443 kts 266°
2026-04-30 08:58 13.26914 78.54745 16311 ft 444 kts 266°
2026-04-30 08:59 13.26696 78.51577 16071 ft 444 kts 266°
2026-04-30 08:59 13.26478 78.48407 15836 ft 445 kts 266°
2026-04-30 08:59 13.26261 78.45262 15675 ft 434 kts 266°
2026-04-30 08:59 13.26051 78.42244 15464 ft 413 kts 266°
2026-04-30 09:00 13.25852 78.39377 15003 ft 396 kts 266°
2026-04-30 09:00 13.25659 78.36600 14498 ft 382 kts 266°
2026-04-30 09:00 13.25473 78.33907 13931 ft 371 kts 266°
2026-04-30 09:00 13.25292 78.31300 13329 ft 362 kts 266°
2026-04-30 09:01 13.25115 78.28771 12891 ft 349 kts 266°
2026-04-30 09:01 13.24944 78.26312 12317 ft 343 kts 266°
2026-04-30 09:01 13.24777 78.23923 11908 ft 339 kts 266°
2026-04-30 09:01 13.24453 78.21511 11246 ft 344 kts 252°
2026-04-30 09:02 13.21731 78.17346 9960 ft 360 kts 229°
2026-04-30 09:02 13.20089 78.15391 9281 ft 362 kts 229°
2026-04-30 09:02 13.18440 78.13443 8598 ft 362 kts 229°
2026-04-30 09:03 13.16774 78.11493 7979 ft 361 kts 229°
2026-04-30 09:03 13.15155 78.09548 7434 ft 357 kts 235°
2026-04-30 09:03 13.14101 78.07275 6910 ft 352 kts 256°
2026-04-30 09:03 13.13885 78.05252 6486 ft 347 kts 274°
2026-04-30 09:04 13.14453 78.02888 6137 ft 338 kts 296°
2026-04-30 09:04 13.15509 78.00844 6008 ft 316 kts 299°
2026-04-30 09:04 13.16497 77.98976 5998 ft 289 kts 299°
2026-04-30 09:04 13.17403 77.97229 6002 ft 264 kts 294°
2026-04-30 09:05 13.17859 77.95489 5988 ft 242 kts 281°
2026-04-30 09:05 13.18164 77.93862 5909 ft 227 kts 282°
2026-04-30 09:05 13.18491 77.92254 5514 ft 234 kts 288°
2026-04-30 09:05 13.19190 77.90724 4917 ft 240 kts 298°
2026-04-30 09:06 13.19978 77.89251 4544 ft 236 kts 298°
2026-04-30 09:06 13.20747 77.87811 4419 ft 222 kts 299°
2026-04-30 09:06 13.21466 77.86471 4406 ft 209 kts 299°
2026-04-30 09:06 13.22195 77.85106 4419 ft 228 kts 299°
2026-04-30 09:07 13.22929 77.83729 4747 ft 206 kts 299°